Lapse_Rate
5.3 5.6 6.0 6.5 7.1 7.2 7.3 7.5 7.6 7.8 7.5 7.2 7.0 7.3 7.8 8.0 7.8 6.8 7.3 7.6 9.6 9.6 9.4 8.3 8.6 9.1 9.2 8.6 8.6 8.6 9.3 9.6 9.5 9.3 9.5 9.4 9.6 9.6 9.7 8.9 8.1 9.6 9.6 9.6
5.4 5.7 6.0 6.5 7.0 7.1 7.0 7.4 7.5 7.4 7.3 7.5 7.8 7.8 8.6 7.9 7.6 7.5 7.6 8.0 8.8 9.6 9.6 9.0 9.0 9.3 8.6 8.5 8.5 8.5 8.9 9.4 9.6 9.6 9.6 9.3 9.6 9.6 9.6 9.6 9.4 9.5 9.8 9.6
5.5 5.8 5.9 6.3 6.8 6.9 7.1 7.3 7.6 7.0 7.0 8.0 8.9 8.4 8.8 7.6 7.3 7.8 7.7 8.3 8.2 8.7 9.4 9.6 8.9 9.3 9.2 8.2 8.4 8.5 8.9 9.5 9.7 9.7 9.7 9.6 9.6 9.7 9.6 9.6 9.7 9.6 9.7 9.5
5.2 5.7 6.0 6.1 6.5 6.8 7.0 7.3 7.4 7.4 7.4 7.3 7.6 8.6 8.0 8.1 7.9 7.4 7.3 7.4 7.6 8.0 8.6 9.4 9.3 9.4 8.3 8.0 8.3 8.3 8.4 9.5 9.6 9.6 9.7 9.6 9.7 9.7 9.7 9.6 9.7 9.7 9.6 9.6
5.1 5.4 5.8 5.9 6.1 6.5 6.4 5.9 6.2 6.7 7.2 7.4 7.7 7.9 8.4 8.5 8.5 8.0 8.0 8.0 8.2 8.3 9.1 9.2 8.8 8.7 8.3 8.1 8.1 8.2 8.6 9.5 9.6 9.8 9.6 9.7 9.7 9.7 9.7 9.7 9.7 9.7 9.7 9.6
5.3 5.3 5.6 5.7 5.8 6.0 6.0 6.3 6.3 6.2 6.8 7.0 7.2 7.8 7.9 8.3 8.7 7.8 7.7 7.8 7.5 8.3 8.1 8.0 8.1 9.3 9.1 8.5 8.1 8.3 8.7 9.5 9.6 9.6 9.6 9.7 9.7 9.7 9.7 9.7 9.7 9.7 9.7 9.5
5.2 5.3 5.4 5.5 5.5 5.7 5.8 6.2 6.3 6.0 6.8 7.0 7.5 7.6 7.4 7.5 6.9 7.5 7.5 7.0 7.4 7.0 7.4 7.9 8.2 8.1 8.4 8.7 9.0 8.8 8.9 9.5 9.6 9.6 9.6 9.9 9.6 9.6 9.7 9.7 9.7 9.6 9.5 8.8
5.3 5.2 5.3 5.4 5.3 5.4 5.6 5.7 5.9 5.5 6.0 6.9 6.5 6.1 6.4 6.4 6.2 6.9 6.8 6.9 6.2 7.2 7.5 8.1 8.4 8.5 8.6 8.5 8.5 9.4 9.5 9.6 9.6 9.6 9.6 9.6 9.6 9.5 9.4 9.3 9.5 9.0 9.5 8.4
5.3 5.2 5.2 5.1 5.2 5.2 5.3 5.5 5.7 5.9 5.1 6.2 5.3 5.8 5.9 6.4 7.0 6.9 6.6 7.1 7.8 7.6 7.6 8.8 8.6 9.1 8.9 8.7 8.8 9.1 9.6 9.6 9.6 9.6 9.7 9.8 9.6 9.6 9.4 9.6 9.6 8.7 8.6 8.1
5.2 5.2 5.2 5.1 5.0 5.1 5.1 5.3 5.4 5.6 5.7 5.0 5.2 5.6 6.1 6.3 6.3 7.2 6.9 6.4 7.7 7.6 7.9 8.7 9.4 9.6 9.5 9.5 8.6 8.5 9.4 9.5 9.6 9.6 9.6 9.6 9.7 9.5 9.1 9.1 9.3 9.1 8.4 8.1
5.4 5.2 5.2 5.2 5.0 5.0 5.0 5.2 5.1 5.3 5.2 4.3 5.2 5.3 5.1 5.1 5.7 6.7 5.8 6.7 7.3 7.8 8.0 8.7 9.5 9.6 9.6 9.6 9.4 8.6 8.8 8.7 9.5 9.6 9.7 9.7 9.4 9.0 9.1 9.4 8.5 8.5 8.4 8.1
5.4 5.4 5.2 5.2 5.1 5.0 4.9 4.8 4.9 5.0 5.1 4.3 5.2 5.6 5.8 6.1 5.5 4.9 5.3 6.0 6.6 6.9 7.8 8.5 9.4 9.5 9.6 9.6 9.6 9.5 8.9 9.0 9.5 9.6 9.6 9.5 9.0 9.2 9.0 9.3 8.5 8.3 8.1 7.9
5.2 5.3 5.3 5.1 5.1 5.1 4.9 5.0 4.9 4.9 5.0 5.0 5.1 5.3 5.6 5.6 5.8 5.8 6.4 6.0 5.3 6.3 7.2 6.6 7.2 7.4 8.5 9.5 9.6 9.4 9.2 9.4 9.6 9.7 9.2 9.2 9.1 9.2 9.1 9.0 8.7 8.3 8.1 7.7
5.1 5.3 5.2 5.1 5.0 5.2 5.2 5.1 5.1 4.8 4.9 5.0 5.2 4.4 5.1 5.6 5.7 6.0 6.0 4.9 5.4 5.2 6.5 6.1 7.0 7.8 7.9 8.8 9.3 9.5 9.6 9.1 9.3 9.2 9.0 9.0 9.2 9.0 9.0 8.9 8.6 8.3 7.9 7.6
5.2 5.2 5.3 5.2 5.1 5.4 5.5 5.4 5.2 5.1 4.9 4.3 4.4 4.4 4.9 5.5 5.4 5.9 5.9 5.7 6.0 6.0 6.1 6.4 6.7 7.3 7.1 7.7 8.1 9.2 9.2 9.5 9.4 9.5 9.2 9.3 9.1 9.2 8.8 8.7 8.8 8.2 8.3 7.6
5.3 5.1 5.4 5.4 5.4 5.5 5.5 5.1 5.2 5.1 4.9 4.7 4.6 4.7 4.4 4.6 4.8 5.6 5.6 5.7 5.8 5.7 5.4 5.8 6.4 7.0 6.3 7.6 8.4 8.6 9.5 9.4 9.1 9.5 9.4 9.3 9.0 9.3 8.8 8.6 8.2 8.4 8.2 8.2
5.0 4.9 5.3 5.5 5.6 5.6 5.7 5.3 5.6 5.3 5.2 4.8 4.4 5.3 5.0 4.6 4.6 4.8 4.9 5.4 5.0 4.9 5.2 5.4 6.1 6.7 6.0 6.9 7.7 8.4 9.0 9.5 8.7 8.8 8.8 8.9 8.8 9.1 8.4 8.1 7.7 8.2 8.3 8.3
5.5 5.4 5.6 5.6 5.6 5.7 5.1 5.5 5.6 5.6 5.5 5.2 4.5 5.2 5.1 5.0 5.1 5.1 5.1 5.1 5.0 4.9 5.1 5.2 5.9 6.4 6.2 6.5 7.1 7.9 8.6 9.1 8.3 8.9 8.9 8.7 8.5 8.2 8.1 7.8 8.4 8.6 8.5 8.3
6.1 6.1 6.1 5.8 5.7 5.4 5.8 5.5 5.6 5.5 5.4 5.1 4.8 6.0 6.5 5.6 5.7 5.8 5.6 5.4 5.3 5.3 5.4 5.3 6.0 6.5 6.4 6.1 6.6 7.4 8.2 8.0 7.7 8.5 8.7 8.6 8.2 8.0 7.6 7.8 8.1 8.6 8.4 8.1
6.1 6.1 5.8 5.2 5.5 5.7 5.7 5.4 5.1 5.0 5.0 5.3 6.2 5.3 5.5 5.9 6.2 6.4 5.7 5.2 5.4 5.9 5.6 5.9 6.1 6.3 6.3 6.4 6.4 6.6 7.5 7.6 8.4 8.1 8.3 8.2 7.9 7.7 8.5 7.9 8.1 8.4 8.0 7.9
5.5 5.3 5.4 5.3 5.7 5.5 5.5 5.3 5.1 4.9 5.0 5.5 6.3 6.0 5.7 5.8 6.0 6.3 6.2 5.9 5.8 5.8 6.0 6.2 6.2 6.0 6.0 6.1 6.1 6.2 7.4 8.1 8.4 8.5 8.3 8.1 8.3 8.2 7.9 7.6 8.6 8.1 7.9 7.8
5.5 5.6 5.8 5.6 5.6 5.7 5.6 5.5 5.6 5.5 5.9 6.3 5.9 5.6 5.8 5.4 5.3 5.9 6.0 6.0 6.1 5.9 6.5 6.3 5.9 6.1 6.3 6.4 6.1 7.1 7.8 8.2 8.5 8.0 8.0 7.5 7.0 6.8 6.8 8.4 8.1 7.7 7.7 7.6
5.5 5.3 5.3 5.8 5.7 5.8 5.7 5.8 6.1 6.4 6.3 5.9 5.7 5.5 5.4 5.2 5.3 5.6 6.1 6.1 6.1 6.2 6.0 5.8 5.8 6.0 6.4 6.4 6.6 6.9 7.8 8.3 8.2 7.7 7.6 7.0 6.8 6.9 8.1 7.9 7.8 7.7 7.6 7.3
5.5 5.5 5.8 5.9 6.0 6.2 6.7 6.5 7.0 6.5 6.2 6.1 5.8 5.3 5.6 5.7 5.6 5.9 6.1 6.5 6.7 5.9 5.7 5.9 6.1 6.0 6.3 6.4 7.1 7.7 8.0 8.2 7.6 7.6 7.1 7.1 7.9 8.0 7.9 7.8 7.6 7.5 7.3 7.1
5.3 5.2 5.3 5.8 5.7 5.9 6.1 6.1 6.2 6.3 6.3 6.1 6.4 5.8 5.9 6.1 6.1 6.0 6.1 6.3 5.9 5.9 6.2 6.1 6.2 6.1 5.9 6.8 7.4 7.7 7.5 7.5 7.2 7.4 8.2 8.1 8.0 8.1 8.0 7.8 7.8 7.6 7.3 7.2
4.8 5.0 5.3 5.8 5.8 5.9 5.9 6.0 6.0 5.9 6.1 6.1 6.3 6.2 6.0 6.2 6.4 5.9 5.7 5.9 6.8 7.2 6.9 6.8 6.2 5.9 6.2 6.7 7.4 7.8 7.4 7.4 8.0 8.1 8.0 8.0 7.9 7.9 8.0 8.0 7.8 7.5 7.1 6.8
4.7 5.4 5.1 5.0 5.2 5.8 5.7 5.8 5.9 5.9 5.8 5.8 5.6 5.3 5.8 6.3 6.3 5.7 5.6 5.5 6.2 6.2 6.4 6.6 6.5 6.8 6.6 6.6 7.1 7.7 8.1 7.5 7.5 7.9 8.0 7.9 8.0 8.0 7.8 7.5 7.4 7.2 7.1 7.0
Wind_Speed
20 20 21 23 26 33 12 7 8 8 11 11 13 16 25 2 10 10 10 10 20 22 22 22 19 19 11 20 22 21 17 11 16 16 17 10 10 10 8 5 11 4 10 11
19 20 21 23 23 19 7 4 2 8 11 12 14 22 26 8 10 12 10 10 10 18 20 18 16 15 17 18 18 22 17 11 13 16 9 10 9 12 11 9 16 2 5 10
18 21 21 23 23 19 5 5 6 6 9 15 11 19 11 15 8 2 3 4 9 9 14 17 18 16 11 11 21 15 15 19 13 12 14 16 16 12 8 11 5 10 8 14
18 20 21 23 27 25 4 5 4 4 11 13 14 17 16 18 13 9 8 8 14 14 12 17 15 17 14 12 9 18 19 19 12 8 4 4 12 10 9 12 3 4 16 12
16 19 21 23 28 36 5 6 4 5 9 1 15 7 12 19 15 12 12 9 8 8 16 17 15 18 13 17 17 19 21 16 15 12 10 6 8 13 11 8 1 7 4 11
14 17 19 21 24 27 4 6 8 6 4 10 11 10 10 15 10 7 8 5 4 15 10 11 13 3 7 18 17 19 22 17 13 13 10 10 11 10 8 7 5 6 7 9
12 14 17 18 17 16 8 5 7 7 8 7 9 2 2 5 6 5 10 4 9 8 7 7 8 7 7 1 18 18 20 21 11 10 14 15 9 17 13 7 5 5 7 9
11 12 14 16 17 19 9 5 5 5 9 5 5 3 5 4 3 9 5 4 6 7 8 9 13 12 14 13 14 16 20 15 13 11 14 11 6 6 7 8 9 5 6 12
11 11 12 14 16 19 9 4 5 6 6 2 11 4 4 9 10 11 9 4 6 7 6 11 11 12 14 15 17 17 16 17 12 14 13 16 13 17 13 10 8 8 11 14
11 11 11 12 15 17 10 5 6 5 8 1 4 3 6 6 8 4 5 1 7 6 8 9 9 13 14 14 20 16 15 14 16 11 13 12 11 17 8 10 10 16 16 14
10 12 11 11 12 16 10 6 4 5 6 5 2 7 8 3 6 7 7 5 7 4 10 10 9 10 10 13 19 22 15 14 13 13 11 11 18 14 10 5 13 16 15 12
10 12 10 9 10 13 15 5 2 4 6 9 8 11 12 10 8 7 5 6 5 7 5 6 4 6 4 14 11 20 18 17 13 14 14 12 19 12 11 10 13 14 13 13
8 9 9 8 8 9 10 7 5 7 8 9 11 12 15 14 12 9 5 2 4 1 6 6 3 4 7 9 11 15 16 3 11 13 8 15 17 11 13 12 15 14 14 14
8 8 8 9 8 8 10 7 5 5 6 5 6 2 6 8 10 12 13 10 6 7 4 5 5 6 1 10 8 8 8 11 13 5 5 10 14 13 14 13 15 15 15 14
6 7 8 7 8 9 13 9 5 4 5 5 8 13 11 9 9 11 11 11 9 6 6 6 7 7 5 8 8 9 5 8 11 7 13 9 15 15 14 16 15 17 17 14
8 5 3 4 7 11 8 4 3 4 4 5 4 3 4 8 16 14 11 9 8 7 5 6 8 9 2 7 11 13 8 8 10 8 17 16 16 15 14 16 17 17 16 16
3 2 2 5 6 8 6 5 4 9 5 4 4 4 9 8 8 10 9 12 7 6 8 8 11 8 5 10 13 14 17 11 6 7 2 10 15 17 19 19 19 16 18 17
4 1 3 6 9 14 5 4 8 5 4 3 4 3 2 11 7 8 8 9 9 7 8 6 10 11 6 8 14 18 18 12 10 8 12 12 14 17 20 20 20 19 18 17
3 5 7 7 4 2 4 9 12 3 2 2 4 5 4 6 9 8 8 7 8 7 10 11 8 12 11 11 14 13 18 8 8 14 14 13 19 21 20 20 21 19 17 17
5 6 2 3 3 8 8 5 5 4 3 3 4 8 3 4 7 6 5 0 7 10 12 9 15 16 19 16 12 8 9 14 11 11 15 16 20 21 21 20 18 17 17 18
2 2 1 1 5 2 3 4 4 6 6 7 6 10 9 5 5 3 7 5 6 11 10 15 12 17 17 19 18 14 13 15 16 15 17 21 21 20 20 19 18 17 18 17
2 2 5 1 2 4 4 4 4 5 5 6 8 8 9 4 1 3 3 4 4 7 10 16 20 15 15 19 22 21 14 16 16 18 14 19 19 19 18 18 18 18 18 18
6 3 2 2 3 3 4 5 4 4 5 5 6 2 3 6 5 3 4 5 7 5 7 16 13 11 17 14 15 16 13 15 17 15 17 20 19 20 19 18 18 19 18 16
3 3 4 5 6 6 6 8 5 4 4 4 3 2 3 4 8 4 5 6 5 11 12 17 12 15 13 12 12 13 16 19 19 19 22 22 20 19 19 18 18 18 18 17
3 3 5 7 7 4 2 3 6 5 1 2 1 2 4 5 4 5 5 5 7 6 15 10 7 9 11 13 14 15 14 14 18 20 21 21 22 20 19 18 17 17 17 17
4 6 6 5 5 7 7 7 6 5 3 3 1 1 4 8 4 7 7 7 6 9 9 9 10 10 11 12 13 14 14 17 18 19 20 21 20 20 20 19 17 17 17 16
4 5 6 7 6 6 6 6 8 3 2 4 4 7 9 5 6 9 8 7 7 9 11 8 5 12 13 13 13 14 16 17 19 20 20 20 20 19 19 19 17 17 16 15
Wind_Direction
330 334 335 333 334 335 307 277 236 145 168 200 211 216 230 90 181 199 253 282 221 202 179 193 184 190 194 200 183 205 238 227 165 196 209 249 293 231 214 83 306 9 84 111
332 334 337 334 335 350 310 258 245 166 203 223 195 222 236 180 214 198 198 224 256 202 187 188 197 208 195 191 193 196 216 244 161 192 171 201 251 258 244 201 199 114 302 116
332 333 336 333 332 338 295 271 215 156 211 255 273 211 218 196 251 147 247 253 214 232 237 188 204 198 148 181 205 191 229 239 194 182 198 192 210 219 254 274 169 136 87 134
331 336 338 335 332 332 282 244 278 24 195 215 235 227 200 208 174 236 205 199 210 201 207 194 194 207 163 184 178 175 220 237 243 105 106 156 168 198 197 265 10 349 127 145
330 338 342 338 336 332 248 307 338 311 307 217 214 229 229 202 197 175 183 235 191 240 214 206 195 198 162 186 177 193 210 230 248 217 161 213 254 177 188 220 357 295 353 99
329 335 342 341 345 339 314 12 279 270 193 222 218 206 211 221 184 199 336 46 204 214 43 13 336 17 196 177 180 199 202 222 218 217 213 193 238 224 195 201 222 263 215 121
322 335 343 354 349 351 313 345 297 270 251 235 222 261 129 236 189 282 167 210 260 43 336 288 255 248 250 231 177 198 202 213 217 228 210 212 219 218 208 209 180 236 96 122
317 330 344 350 350 343 312 325 312 297 280 238 139 256 202 219 198 243 237 155 353 312 277 231 185 193 210 203 220 215 199 203 221 214 232 195 139 185 186 219 210 218 147 130
317 320 332 344 349 346 318 328 316 281 286 153 358 189 241 239 209 189 227 157 280 270 255 222 189 184 183 199 201 218 232 203 215 221 237 222 183 190 211 210 223 182 148 157
307 311 323 338 343 343 323 300 344 275 279 357 300 264 302 252 324 258 138 133 235 230 240 227 197 211 189 192 194 198 215 222 215 206 223 247 194 140 147 220 255 163 163 168
302 305 311 325 338 340 332 333 9 316 292 306 302 286 292 283 268 271 56 225 211 232 236 236 228 235 178 208 188 187 206 197 218 221 206 219 125 131 195 121 128 155 161 161
284 296 305 306 328 335 334 277 71 320 271 311 320 285 286 281 315 325 320 7 345 14 259 240 291 261 195 214 196 188 206 203 212 208 220 145 155 158 205 153 148 153 156 156
290 292 293 306 312 329 325 317 327 287 261 268 233 237 221 221 238 266 286 116 14 131 354 331 338 306 324 203 222 170 219 212 226 222 131 159 167 142 172 151 155 162 158 147
298 290 289 299 299 315 309 297 347 295 288 275 165 53 230 234 225 221 247 286 296 321 309 286 265 246 26 274 318 232 188 178 216 110 118 169 170 162 168 163 152 161 144 155
283 294 296 295 306 307 291 273 276 279 298 329 325 332 242 216 219 209 226 240 253 271 260 236 242 259 299 262 290 268 159 182 216 185 170 203 181 181 176 163 161 150 152 142
257 270 278 309 315 310 284 205 96 286 260 280 265 249 256 209 199 218 221 225 231 242 250 254 268 279 234 260 229 235 238 217 211 250 182 199 176 178 178 158 155 146 146 131
216 181 269 306 311 300 315 358 5 327 286 255 266 237 175 212 205 207 208 211 225 233 234 252 266 228 195 263 255 233 242 202 223 304 237 172 160 174 167 154 148 137 130 131
75 121 261 278 286 274 259 217 168 313 286 264 275 249 267 189 193 215 198 202 207 210 240 247 240 247 215 252 242 256 268 274 177 243 227 190 176 159 157 156 146 142 140 131
293 270 265 265 241 260 49 116 137 115 47 306 293 260 142 162 222 206 174 208 207 227 221 225 251 236 224 220 251 249 247 261 213 237 205 173 168 166 157 151 149 139 140 135
277 271 210 236 32 123 138 186 182 188 188 212 261 290 242 249 210 213 140 358 256 211 213 249 224 242 236 226 238 236 274 289 248 217 216 168 165 159 160 162 142 148 140 134
246 266 21 113 157 178 227 222 220 177 204 193 232 241 258 181 255 253 193 202 216 225 230 210 221 227 231 239 235 249 266 258 240 221 205 177 170 161 165 144 142 143 138 135
44 277 266 300 219 229 260 208 203 206 242 177 202 203 210 247 196 244 247 230 263 239 219 216 227 229 222 216 226 238 241 243 230 220 190 158 161 164 139 139 142 138 131 135
229 210 232 184 176 233 218 216 189 216 201 39 8 173 201 212 210 246 249 250 226 283 241 231 229 233 229 211 208 214 216 225 218 191 171 151 151 131 140 144 135 134 134 134
237 221 220 229 196 229 202 202 264 49 92 96 44 360 267 200 182 217 247 234 265 229 234 228 230 218 235 172 194 198 202 202 189 157 143 138 135 137 138 140 139 136 136 140
254 221 236 227 253 239 244 307 275 258 1 38 60 318 264 252 213 205 252 247 223 235 234 247 248 175 173 178 182 186 183 170 142 139 141 143 137 140 140 140 138 136 135 136
241 238 250 270 284 267 275 260 261 296 5 69 302 225 278 233 221 204 205 264 235 221 255 212 216 158 171 169 174 179 160 148 147 149 144 139 145 144 137 131 129 132 136 134
239 232 234 245 265 266 258 266 258 233 200 192 197 200 224 232 225 207 206 227 282 334 327 338 198 151 165 174 170 159 150 155 142 140 141 137 132 132 127 129 134 130 128 131